Year,Month,Day,Hour,Minute,Value (Times are PST for temperature in C)
2009,06,05,00,00,20.70
2009,06,05,00,01,20.70
2009,06,05,00,02,20.70
2009,06,05,00,03,20.70
2009,06,05,00,04,20.70
2009,06,05,00,05,20.70
2009,06,05,00,06,20.70
2009,06,05,00,07,20.80
2009,06,05,00,08,20.80
2009,06,05,00,09,20.80
2009,06,05,00,10,20.80
2009,06,05,00,11,20.70
2009,06,05,00,12,20.70
2009,06,05,00,13,20.70
2009,06,05,00,14,20.60
2009,06,05,00,15,20.60
2009,06,05,00,16,20.50
2009,06,05,00,17,20.50
2009,06,05,00,18,20.50
2009,06,05,00,19,20.40
2009,06,05,00,20,20.30
2009,06,05,00,21,20.30
2009,06,05,00,22,20.20
2009,06,05,00,23,20.20
2009,06,05,00,24,20.10
2009,06,05,00,25,20.10
2009,06,05,00,26,20.00
2009,06,05,00,27,19.90
2009,06,05,00,28,19.90
2009,06,05,00,29,19.90
2009,06,05,00,30,19.80
2009,06,05,00,31,19.80
2009,06,05,00,32,19.80
2009,06,05,00,33,19.80
2009,06,05,00,34,19.80
2009,06,05,00,35,19.70
2009,06,05,00,36,19.70
2009,06,05,00,37,19.70
2009,06,05,00,38,19.70
2009,06,05,00,39,19.70
2009,06,05,00,40,19.60
2009,06,05,00,41,19.60
2009,06,05,00,42,19.60
2009,06,05,00,43,19.60
2009,06,05,00,44,19.60
2009,06,05,00,45,19.60
2009,06,05,00,46,19.60
2009,06,05,00,47,19.60
2009,06,05,00,48,19.60
2009,06,05,00,49,19.60
2009,06,05,00,50,19.60
2009,06,05,00,51,19.60
2009,06,05,00,52,19.60
2009,06,05,00,53,19.60
2009,06,05,00,54,19.60
2009,06,05,00,55,19.60
2009,06,05,00,56,19.60
2009,06,05,00,57,19.60
2009,06,05,00,58,19.60
2009,06,05,00,59,19.70
2009,06,05,01,00,19.70
2009,06,05,01,01,19.70
2009,06,05,01,02,19.70
2009,06,05,01,03,19.70
2009,06,05,01,04,19.70
2009,06,05,01,05,19.70
2009,06,05,01,06,19.70
2009,06,05,01,07,19.70
2009,06,05,01,08,19.60
2009,06,05,01,09,19.60
2009,06,05,01,10,19.60
2009,06,05,01,11,19.60
2009,06,05,01,12,19.60
2009,06,05,01,13,19.60
2009,06,05,01,14,19.60
2009,06,05,01,15,19.60
2009,06,05,01,16,19.60
2009,06,05,01,17,19.60
2009,06,05,01,18,19.60
2009,06,05,01,19,19.60
2009,06,05,01,20,19.60
2009,06,05,01,21,19.60
2009,06,05,01,22,19.60
2009,06,05,01,23,19.60
2009,06,05,01,24,19.60
2009,06,05,01,25,19.60
2009,06,05,01,26,19.60
2009,06,05,01,27,19.60
2009,06,05,01,28,19.60
2009,06,05,01,29,19.60
2009,06,05,01,30,19.60
2009,06,05,01,31,19.50
2009,06,05,01,32,19.50
2009,06,05,01,33,19.40
2009,06,05,01,34,19.30
2009,06,05,01,35,19.30
2009,06,05,01,36,19.20
2009,06,05,01,37,19.10
2009,06,05,01,38,19.10
2009,06,05,01,39,19.10
2009,06,05,01,40,19.10
2009,06,05,01,41,19.10
2009,06,05,01,42,19.10
2009,06,05,01,43,19.00
2009,06,05,01,44,18.90
2009,06,05,01,45,18.90
2009,06,05,01,46,18.80
2009,06,05,01,47,18.70
2009,06,05,01,48,18.60
2009,06,05,01,49,18.60
2009,06,05,01,50,18.60
2009,06,05,01,51,18.50
2009,06,05,01,52,18.40
2009,06,05,01,53,18.30
2009,06,05,01,54,18.20
2009,06,05,01,55,18.20
2009,06,05,01,56,18.10
2009,06,05,01,57,18.00
2009,06,05,01,58,17.80
2009,06,05,01,59,17.70
2009,06,05,02,00,17.60
2009,06,05,02,01,17.50
2009,06,05,02,02,17.30
2009,06,05,02,03,17.20
2009,06,05,02,04,17.10
2009,06,05,02,05,17.00
2009,06,05,02,06,16.90
2009,06,05,02,07,16.80
2009,06,05,02,08,16.70
2009,06,05,02,09,16.70
2009,06,05,02,10,16.70
2009,06,05,02,11,16.70
2009,06,05,02,12,16.70
2009,06,05,02,13,16.70
2009,06,05,02,14,16.60
2009,06,05,02,15,16.60
2009,06,05,02,16,16.60
2009,06,05,02,17,16.60
2009,06,05,02,18,16.60
2009,06,05,02,19,16.50
2009,06,05,02,20,16.40
2009,06,05,02,21,16.30
2009,06,05,02,22,16.30
2009,06,05,02,23,16.20
2009,06,05,02,24,16.10
2009,06,05,02,25,16.00
2009,06,05,02,26,15.80
2009,06,05,02,27,15.70
2009,06,05,02,28,15.60
2009,06,05,02,29,15.50
2009,06,05,02,30,15.30
2009,06,05,02,31,15.30
2009,06,05,02,32,15.20
2009,06,05,02,33,15.10
2009,06,05,02,34,15.00
2009,06,05,02,35,14.90
2009,06,05,02,36,14.80
2009,06,05,02,37,14.70
2009,06,05,02,38,14.60
2009,06,05,02,39,14.50
2009,06,05,02,40,14.40
2009,06,05,02,41,14.40
2009,06,05,02,42,14.30
2009,06,05,02,43,14.20
2009,06,05,02,44,14.20
2009,06,05,02,45,14.10
2009,06,05,02,46,14.10
2009,06,05,02,47,14.00
2009,06,05,02,48,14.00
2009,06,05,02,49,14.00
2009,06,05,02,50,14.00
2009,06,05,02,51,13.90
2009,06,05,02,52,13.90
2009,06,05,02,53,13.90
2009,06,05,02,54,13.90
2009,06,05,02,55,13.90
2009,06,05,02,56,13.90
2009,06,05,02,57,14.00
2009,06,05,02,58,14.10
2009,06,05,02,59,14.20
2009,06,05,03,00,14.30
2009,06,05,03,01,14.40
2009,06,05,03,02,14.50
2009,06,05,03,03,14.50
2009,06,05,03,04,14.60
2009,06,05,03,05,14.70
2009,06,05,03,06,14.70
2009,06,05,03,07,14.80
2009,06,05,03,08,14.90
2009,06,05,03,09,15.00
2009,06,05,03,10,15.10
2009,06,05,03,11,15.20
2009,06,05,03,12,15.30
2009,06,05,03,13,15.40
2009,06,05,03,14,15.50
2009,06,05,03,15,15.60
2009,06,05,03,16,15.70
2009,06,05,03,17,15.70
2009,06,05,03,18,15.80
2009,06,05,03,19,15.80
2009,06,05,03,20,15.80
2009,06,05,03,21,15.90
2009,06,05,03,22,15.90
2009,06,05,03,23,15.90
2009,06,05,03,24,16.10
2009,06,05,03,25,16.10
2009,06,05,03,26,16.10
2009,06,05,03,27,16.10
2009,06,05,03,28,16.10
2009,06,05,03,29,16.10
2009,06,05,03,30,16.10
2009,06,05,03,31,16.10
2009,06,05,03,32,16.00
2009,06,05,03,33,15.90
2009,06,05,03,34,15.90
2009,06,05,03,35,15.90
2009,06,05,03,36,15.80
2009,06,05,03,37,15.80
2009,06,05,03,38,15.80
2009,06,05,03,39,15.80
2009,06,05,03,40,15.80
2009,06,05,03,41,15.80
2009,06,05,03,42,15.80
2009,06,05,03,43,15.80
2009,06,05,03,44,15.70
2009,06,05,03,45,15.70
2009,06,05,03,46,15.70
2009,06,05,03,47,15.60
2009,06,05,03,48,15.60
2009,06,05,03,49,15.60
2009,06,05,03,50,15.50
2009,06,05,03,51,15.50
2009,06,05,03,52,15.50
2009,06,05,03,53,15.40
2009,06,05,03,54,15.30
2009,06,05,03,55,15.30
2009,06,05,03,56,15.30
2009,06,05,03,57,15.20
2009,06,05,03,58,15.20
2009,06,05,03,59,15.20
2009,06,05,04,00,15.10
2009,06,05,04,01,15.10
2009,06,05,04,02,15.00
2009,06,05,04,03,15.00
2009,06,05,04,04,14.90
2009,06,05,04,05,14.90
2009,06,05,04,06,14.80
2009,06,05,04,07,14.80
2009,06,05,04,08,14.80
2009,06,05,04,09,14.70
2009,06,05,04,10,14.70
2009,06,05,04,11,14.70
2009,06,05,04,12,14.60
2009,06,05,04,13,14.60
2009,06,05,04,14,14.60
2009,06,05,04,15,14.50
2009,06,05,04,16,14.50
2009,06,05,04,17,14.50
2009,06,05,04,18,14.40
2009,06,05,04,19,14.40
2009,06,05,04,20,14.40
2009,06,05,04,21,14.30
2009,06,05,04,22,14.30
2009,06,05,04,23,14.30
2009,06,05,04,24,14.30
2009,06,05,04,25,14.30
2009,06,05,04,26,14.20
2009,06,05,04,27,14.20
2009,06,05,04,28,14.20
2009,06,05,04,29,14.20
2009,06,05,04,30,14.20
2009,06,05,04,31,14.20
2009,06,05,04,32,14.20
2009,06,05,04,33,14.20
2009,06,05,04,34,14.20
2009,06,05,04,35,14.10
2009,06,05,04,36,14.10
2009,06,05,04,37,14.10
2009,06,05,04,38,14.10
2009,06,05,04,39,14.10
2009,06,05,04,40,14.00
2009,06,05,04,41,14.00
2009,06,05,04,42,14.00
2009,06,05,04,43,14.00
2009,06,05,04,44,14.00
2009,06,05,04,45,13.90
2009,06,05,04,46,13.90
2009,06,05,04,47,13.90
2009,06,05,04,48,13.90
2009,06,05,04,49,13.80
2009,06,05,04,50,13.80
2009,06,05,04,51,13.80
2009,06,05,04,52,13.80
2009,06,05,04,53,13.70
2009,06,05,04,54,13.70
2009,06,05,04,55,13.70
2009,06,05,04,56,13.70
2009,06,05,04,57,13.70
2009,06,05,04,58,13.70
2009,06,05,04,59,13.70
2009,06,05,05,00,13.70
2009,06,05,05,01,13.70
2009,06,05,05,02,13.60
2009,06,05,05,03,13.60
2009,06,05,05,04,13.60
2009,06,05,05,05,13.60
2009,06,05,05,06,13.60
2009,06,05,05,07,13.60
2009,06,05,05,08,13.60
2009,06,05,05,09,13.60
2009,06,05,05,10,13.60
2009,06,05,05,11,13.60
2009,06,05,05,12,13.60
2009,06,05,05,13,13.60
2009,06,05,05,14,13.60
2009,06,05,05,15,13.60
2009,06,05,05,16,13.60
2009,06,05,05,17,13.60
2009,06,05,05,18,13.60
2009,06,05,05,19,13.60
2009,06,05,05,20,13.60
2009,06,05,05,21,13.60
2009,06,05,05,22,13.60
2009,06,05,05,23,13.60
2009,06,05,05,24,13.60
2009,06,05,05,25,13.60
2009,06,05,05,26,13.60
2009,06,05,05,27,13.60
2009,06,05,05,28,13.60
2009,06,05,05,29,13.60
2009,06,05,05,30,13.60
2009,06,05,05,31,13.60
2009,06,05,05,32,13.60
2009,06,05,05,33,13.60
2009,06,05,05,34,13.60
2009,06,05,05,35,13.60
2009,06,05,05,36,13.60
2009,06,05,05,37,13.60
2009,06,05,05,38,13.60
2009,06,05,05,39,13.50
2009,06,05,05,40,13.50
2009,06,05,05,41,13.50
2009,06,05,05,42,13.50
2009,06,05,05,43,13.50
2009,06,05,05,44,13.50
2009,06,05,05,45,13.50
2009,06,05,05,46,13.50
2009,06,05,05,47,13.50
2009,06,05,05,48,13.50
2009,06,05,05,49,13.50
2009,06,05,05,50,13.50
2009,06,05,05,51,13.50
2009,06,05,05,52,13.50
2009,06,05,05,53,13.50
2009,06,05,05,54,13.50
2009,06,05,05,55,13.50
2009,06,05,05,56,13.50
2009,06,05,05,57,13.50
2009,06,05,05,58,13.50
2009,06,05,05,59,13.50
2009,06,05,06,00,13.50
2009,06,05,06,01,13.50
2009,06,05,06,02,13.50
2009,06,05,06,03,13.60
2009,06,05,06,04,13.60
2009,06,05,06,05,13.60
2009,06,05,06,06,13.60
2009,06,05,06,07,13.60
2009,06,05,06,08,13.70
2009,06,05,06,09,13.70
2009,06,05,06,10,13.70
2009,06,05,06,11,13.80
2009,06,05,06,12,13.80
2009,06,05,06,13,13.90
2009,06,05,06,14,13.90
2009,06,05,06,15,14.00
2009,06,05,06,16,14.00
2009,06,05,06,17,14.10
2009,06,05,06,18,14.20
2009,06,05,06,19,14.20
2009,06,05,06,20,14.20
2009,06,05,06,21,14.20
2009,06,05,06,22,14.20
2009,06,05,06,23,14.20
2009,06,05,06,24,14.20
2009,06,05,06,25,14.20
2009,06,05,06,26,14.20
2009,06,05,06,27,14.20
2009,06,05,06,28,14.20
2009,06,05,06,29,14.10
2009,06,05,06,30,14.10
2009,06,05,06,31,14.10
2009,06,05,06,32,14.10
2009,06,05,06,33,14.20
2009,06,05,06,34,14.20
2009,06,05,06,35,14.20
2009,06,05,06,36,14.20
2009,06,05,06,37,14.20
2009,06,05,06,38,14.30
2009,06,05,06,39,14.30
2009,06,05,06,40,14.30
2009,06,05,06,41,14.30
2009,06,05,06,42,14.30
2009,06,05,06,43,14.30
2009,06,05,06,44,14.30
2009,06,05,06,45,14.20
2009,06,05,06,46,14.20
2009,06,05,06,47,14.20
2009,06,05,06,48,14.20
2009,06,05,06,49,14.20
2009,06,05,06,50,14.20
2009,06,05,06,51,14.20
2009,06,05,06,52,14.30
2009,06,05,06,53,14.30
2009,06,05,06,54,14.30
2009,06,05,06,55,14.40
2009,06,05,06,56,14.40
2009,06,05,06,57,14.40
2009,06,05,06,58,14.50
2009,06,05,06,59,14.50
2009,06,05,07,00,14.60
2009,06,05,07,01,14.60
2009,06,05,07,02,14.70
2009,06,05,07,03,14.80
2009,06,05,07,04,14.90
2009,06,05,07,05,15.00
2009,06,05,07,06,15.00
2009,06,05,07,07,15.10
2009,06,05,07,08,15.20
2009,06,05,07,09,15.20
2009,06,05,07,10,15.30
2009,06,05,07,11,15.30
2009,06,05,07,12,15.30
2009,06,05,07,13,15.40
2009,06,05,07,14,15.40
2009,06,05,07,15,15.50
2009,06,05,07,16,15.50
2009,06,05,07,17,15.60
2009,06,05,07,18,15.60
2009,06,05,07,19,15.70
2009,06,05,07,20,15.80
2009,06,05,07,21,15.80
2009,06,05,07,22,15.80
2009,06,05,07,23,15.80
2009,06,05,07,24,15.80
2009,06,05,07,25,15.80
2009,06,05,07,26,15.80
2009,06,05,07,27,15.90
2009,06,05,07,28,15.90
2009,06,05,07,29,15.90
2009,06,05,07,30,15.90
2009,06,05,07,31,16.00
2009,06,05,07,32,16.10
2009,06,05,07,33,16.10
2009,06,05,07,34,16.10
2009,06,05,07,35,16.10
2009,06,05,07,36,16.10
2009,06,05,07,37,16.20
2009,06,05,07,38,16.30
2009,06,05,07,39,16.30
2009,06,05,07,40,16.40
2009,06,05,07,41,16.40
2009,06,05,07,42,16.50
2009,06,05,07,43,16.60
2009,06,05,07,44,16.70
2009,06,05,07,45,16.70
2009,06,05,07,46,16.80
2009,06,05,07,47,16.90
2009,06,05,07,48,16.90
2009,06,05,07,49,17.00
2009,06,05,07,50,17.10
2009,06,05,07,51,17.10
2009,06,05,07,52,17.20
2009,06,05,07,53,17.20
2009,06,05,07,54,17.30
2009,06,05,07,55,17.30
2009,06,05,07,56,17.30
2009,06,05,07,57,17.30
2009,06,05,07,58,17.30
2009,06,05,07,59,17.40
2009,06,05,08,00,17.50
2009,06,05,08,01,17.50
2009,06,05,08,02,17.60
2009,06,05,08,03,17.60
2009,06,05,08,04,17.70
2009,06,05,08,05,17.80
2009,06,05,08,06,17.90
2009,06,05,08,07,17.90
2009,06,05,08,08,18.00
2009,06,05,08,09,18.10
2009,06,05,08,10,18.10
2009,06,05,08,11,18.20
2009,06,05,08,12,18.20
2009,06,05,08,13,18.20
2009,06,05,08,14,18.30
2009,06,05,08,15,18.30
2009,06,05,08,16,18.30
2009,06,05,08,17,18.40
2009,06,05,08,18,18.50
2009,06,05,08,19,18.50
2009,06,05,08,20,18.60
2009,06,05,08,21,18.70
2009,06,05,08,22,18.70
2009,06,05,08,23,18.80
2009,06,05,08,24,18.80
2009,06,05,08,25,18.90
2009,06,05,08,26,18.90
2009,06,05,08,27,18.80
2009,06,05,08,28,18.60
2009,06,05,08,29,18.30
2009,06,05,08,30,18.00
2009,06,05,08,31,17.80
2009,06,05,08,32,17.50
2009,06,05,08,33,17.30
2009,06,05,08,34,17.10
2009,06,05,08,35,16.90
2009,06,05,08,36,16.90
2009,06,05,08,37,16.70
2009,06,05,08,38,16.70
2009,06,05,08,39,16.70
2009,06,05,08,40,16.70
2009,06,05,08,41,16.70
2009,06,05,08,42,16.60
2009,06,05,08,43,16.60
2009,06,05,08,44,16.60
2009,06,05,08,45,16.50
2009,06,05,08,46,16.40
2009,06,05,08,47,16.40
2009,06,05,08,48,16.40
2009,06,05,08,49,16.40
2009,06,05,08,50,16.40
2009,06,05,08,51,16.40
2009,06,05,08,52,16.40
2009,06,05,08,53,16.50
2009,06,05,08,54,16.60
2009,06,05,08,55,16.60
2009,06,05,08,56,16.60
2009,06,05,08,57,16.60
2009,06,05,08,58,16.60
2009,06,05,08,59,16.70
2009,06,05,09,00,16.70
2009,06,05,09,01,16.90
2009,06,05,09,02,16.90
2009,06,05,09,03,17.00
2009,06,05,09,04,17.00
2009,06,05,09,05,17.10
2009,06,05,09,06,17.10
2009,06,05,09,07,17.20
2009,06,05,09,08,17.20
2009,06,05,09,09,17.30
2009,06,05,09,10,17.30
2009,06,05,09,11,17.30
2009,06,05,09,12,17.30
2009,06,05,09,13,17.30
2009,06,05,09,14,17.40
2009,06,05,09,15,17.50
2009,06,05,09,16,17.50
2009,06,05,09,17,17.60
2009,06,05,09,18,17.70
2009,06,05,09,19,17.80
2009,06,05,09,20,17.80
2009,06,05,09,21,17.90
2009,06,05,09,22,18.10
2009,06,05,09,23,18.20
2009,06,05,09,24,18.20
2009,06,05,09,25,18.30
2009,06,05,09,26,18.50
2009,06,05,09,27,18.60
2009,06,05,09,28,18.60
2009,06,05,09,29,18.60
2009,06,05,09,30,18.60
2009,06,05,09,31,18.70
2009,06,05,09,32,18.70
2009,06,05,09,33,18.70
2009,06,05,09,34,18.70
2009,06,05,09,35,18.70
2009,06,05,09,36,18.80
2009,06,05,09,37,18.80
2009,06,05,09,38,18.80
2009,06,05,09,39,18.80
2009,06,05,09,40,18.70
2009,06,05,09,41,18.70
2009,06,05,09,42,18.70
2009,06,05,09,43,18.80
2009,06,05,09,44,18.80
2009,06,05,09,45,18.80
2009,06,05,09,46,18.90
2009,06,05,09,47,19.00
2009,06,05,09,48,19.10
2009,06,05,09,49,19.00
2009,06,05,09,50,18.90
2009,06,05,09,51,18.80
2009,06,05,09,52,18.80
2009,06,05,09,53,18.80
2009,06,05,09,54,18.80
2009,06,05,09,55,18.90
2009,06,05,09,56,18.90
2009,06,05,09,57,19.00
2009,06,05,09,58,19.10
2009,06,05,09,59,19.20
2009,06,05,10,00,19.20
2009,06,05,10,01,19.10
2009,06,05,10,02,19.10
2009,06,05,10,03,19.10
2009,06,05,10,04,19.10
2009,06,05,10,05,19.10
2009,06,05,10,06,19.10
2009,06,05,10,07,19.10
2009,06,05,10,08,19.20
2009,06,05,10,09,19.30
2009,06,05,10,10,19.30
2009,06,05,10,11,19.30
2009,06,05,10,12,19.30
2009,06,05,10,13,19.30
2009,06,05,10,14,19.30
2009,06,05,10,15,19.20
2009,06,05,10,16,19.10
2009,06,05,10,17,19.10
2009,06,05,10,18,19.00
2009,06,05,10,19,19.00
2009,06,05,10,20,19.10
2009,06,05,10,21,19.10
2009,06,05,10,22,19.10
2009,06,05,10,23,19.20
2009,06,05,10,24,19.30
2009,06,05,10,25,19.30
2009,06,05,10,26,19.30
2009,06,05,10,27,19.40
2009,06,05,10,28,19.30
2009,06,05,10,29,19.30
2009,06,05,10,30,19.30
2009,06,05,10,31,19.30
2009,06,05,10,32,19.20
2009,06,05,10,33,19.20
2009,06,05,10,34,19.10
2009,06,05,10,35,19.10
2009,06,05,10,36,19.10
2009,06,05,10,37,19.10
2009,06,05,10,38,19.10
2009,06,05,10,39,19.10
2009,06,05,10,40,19.20
2009,06,05,10,41,19.20
2009,06,05,10,42,19.20
2009,06,05,10,43,19.10
2009,06,05,10,44,19.10
2009,06,05,10,45,19.10
2009,06,05,10,46,19.00
2009,06,05,10,47,18.90
2009,06,05,10,48,18.90
2009,06,05,10,49,18.90
2009,06,05,10,50,18.80
2009,06,05,10,51,18.70
2009,06,05,10,52,18.70
2009,06,05,10,53,18.80
2009,06,05,10,54,18.90
2009,06,05,10,55,19.00
2009,06,05,10,56,19.10
2009,06,05,10,57,19.10
2009,06,05,10,58,19.20
2009,06,05,10,59,19.20
2009,06,05,11,00,19.20
2009,06,05,11,01,19.30
2009,06,05,11,02,19.30
2009,06,05,11,03,19.40
2009,06,05,11,04,19.50
2009,06,05,11,05,19.60
2009,06,05,11,06,19.70
2009,06,05,11,07,19.90
2009,06,05,11,08,19.90
2009,06,05,11,09,20.00
2009,06,05,11,10,20.10
2009,06,05,11,11,20.20
2009,06,05,11,12,20.20
2009,06,05,11,13,20.20
2009,06,05,11,14,20.30
2009,06,05,11,15,20.50
2009,06,05,11,16,20.60
2009,06,05,11,17,20.70
2009,06,05,11,18,20.70
2009,06,05,11,19,20.80
2009,06,05,11,20,20.80
2009,06,05,11,21,20.80
2009,06,05,11,22,20.80
2009,06,05,11,23,20.90
2009,06,05,11,24,21.00
2009,06,05,11,25,21.00
2009,06,05,11,26,21.10
2009,06,05,11,27,21.10
2009,06,05,11,28,21.10
2009,06,05,11,29,21.20
2009,06,05,11,30,21.30
2009,06,05,11,31,21.30
2009,06,05,11,32,21.30
2009,06,05,11,33,21.30
2009,06,05,11,34,21.30
2009,06,05,11,35,21.30
2009,06,05,11,36,21.30
2009,06,05,11,37,21.30
2009,06,05,11,38,21.10
2009,06,05,11,39,21.10
2009,06,05,11,40,21.10
2009,06,05,11,41,21.10
2009,06,05,11,42,21.10
2009,06,05,11,43,21.10
2009,06,05,11,44,21.10
2009,06,05,11,45,21.00
2009,06,05,11,46,21.00
2009,06,05,11,47,20.90
2009,06,05,11,48,20.90
2009,06,05,11,49,21.00
2009,06,05,11,50,21.10
2009,06,05,11,51,21.10
2009,06,05,11,52,21.30
2009,06,05,11,53,21.40
2009,06,05,11,54,21.40
2009,06,05,11,55,21.40
2009,06,05,11,56,21.40
2009,06,05,11,57,21.40
2009,06,05,11,58,21.60
2009,06,05,11,59,21.60
2009,06,05,12,00,21.70
2009,06,05,12,01,21.70
2009,06,05,12,02,21.70
2009,06,05,12,03,21.80
2009,06,05,12,04,21.90
2009,06,05,12,05,22.00
2009,06,05,12,06,22.10
2009,06,05,12,07,22.10
2009,06,05,12,08,22.10
2009,06,05,12,09,22.20
2009,06,05,12,10,22.10
2009,06,05,12,11,22.10
2009,06,05,12,12,22.10
2009,06,05,12,13,22.10
2009,06,05,12,14,22.20
2009,06,05,12,15,22.20
2009,06,05,12,16,22.20
2009,06,05,12,17,22.30
2009,06,05,12,18,22.30
2009,06,05,12,19,22.20
2009,06,05,12,20,22.20
2009,06,05,12,21,22.20
2009,06,05,12,22,22.20
2009,06,05,12,23,22.20
2009,06,05,12,24,22.30
2009,06,05,12,25,22.30
2009,06,05,12,26,22.30
2009,06,05,12,27,22.40
2009,06,05,12,28,22.30
2009,06,05,12,29,22.30
2009,06,05,12,30,22.30
2009,06,05,12,31,22.20
2009,06,05,12,32,22.20
2009,06,05,12,33,22.20
2009,06,05,12,34,22.20
2009,06,05,12,35,22.20
2009,06,05,12,36,22.20
2009,06,05,12,37,22.10
2009,06,05,12,38,22.10
2009,06,05,12,39,22.10
2009,06,05,12,40,22.10
2009,06,05,12,41,22.10
2009,06,05,12,42,22.00
2009,06,05,12,43,22.00
2009,06,05,12,44,22.00
2009,06,05,12,45,21.90
2009,06,05,12,46,21.90
2009,06,05,12,47,21.80
2009,06,05,12,48,21.70
2009,06,05,12,49,21.70
2009,06,05,12,50,21.60
2009,06,05,12,51,21.60
2009,06,05,12,52,21.50
2009,06,05,12,53,21.40
2009,06,05,12,54,21.40
2009,06,05,12,55,21.60
2009,06,05,12,56,21.60
2009,06,05,12,57,21.70
2009,06,05,12,58,21.80
2009,06,05,12,59,21.80
2009,06,05,13,00,21.80
2009,06,05,13,01,21.80
2009,06,05,13,02,21.70
2009,06,05,13,03,21.80
2009,06,05,13,04,21.80
2009,06,05,13,05,21.90
2009,06,05,13,06,22.00
2009,06,05,13,07,22.10
2009,06,05,13,08,22.20
2009,06,05,13,09,22.20
2009,06,05,13,10,22.20
2009,06,05,13,11,22.20
2009,06,05,13,12,22.20
2009,06,05,13,13,22.10
2009,06,05,13,14,22.10
2009,06,05,13,15,22.00
2009,06,05,13,16,22.10
2009,06,05,13,17,22.10
2009,06,05,13,18,22.00
2009,06,05,13,19,21.90
2009,06,05,13,20,21.90
2009,06,05,13,21,21.90
2009,06,05,13,22,22.00
2009,06,05,13,23,22.10
2009,06,05,13,24,22.10
2009,06,05,13,25,22.20
2009,06,05,13,26,22.10
2009,06,05,13,27,22.20
2009,06,05,13,28,22.20
2009,06,05,13,29,22.20
2009,06,05,13,30,22.20
2009,06,05,13,31,22.30
2009,06,05,13,32,22.30
2009,06,05,13,33,22.30
2009,06,05,13,34,22.20
2009,06,05,13,35,22.20
2009,06,05,13,36,22.10
2009,06,05,13,37,22.10
2009,06,05,13,38,22.10
2009,06,05,13,39,22.10
2009,06,05,13,40,22.10
2009,06,05,13,41,22.10
2009,06,05,13,42,22.20
2009,06,05,13,43,22.10
2009,06,05,13,44,22.10
2009,06,05,13,45,22.10
2009,06,05,13,46,22.10
2009,06,05,13,47,22.20
2009,06,05,13,48,22.30
2009,06,05,13,49,22.30
2009,06,05,13,50,22.20
2009,06,05,13,51,22.20
2009,06,05,13,52,22.10
2009,06,05,13,53,22.10
2009,06,05,13,54,22.00
2009,06,05,13,55,21.90
2009,06,05,13,56,21.70
2009,06,05,13,57,21.70
2009,06,05,13,58,21.60
2009,06,05,13,59,21.50
2009,06,05,14,00,21.40
2009,06,05,14,01,21.30
2009,06,05,14,02,21.30
2009,06,05,14,03,21.20
2009,06,05,14,04,21.20
2009,06,05,14,05,21.30
2009,06,05,14,06,21.30
2009,06,05,14,07,21.30
2009,06,05,14,08,21.30
2009,06,05,14,09,21.30
2009,06,05,14,10,21.30
2009,06,05,14,11,21.30
2009,06,05,14,12,21.30
2009,06,05,14,13,21.30
2009,06,05,14,14,21.20
2009,06,05,14,15,21.10
2009,06,05,14,16,21.00
2009,06,05,14,17,20.90
2009,06,05,14,18,20.80
2009,06,05,14,19,20.70
2009,06,05,14,20,20.60
2009,06,05,14,21,20.50
2009,06,05,14,22,20.50
2009,06,05,14,23,20.50
2009,06,05,14,24,20.50
2009,06,05,14,25,20.50
2009,06,05,14,26,20.60
2009,06,05,14,27,20.60
2009,06,05,14,28,20.70
2009,06,05,14,29,20.80
2009,06,05,14,30,21.00
2009,06,05,14,31,21.00
2009,06,05,14,32,21.10
2009,06,05,14,33,21.20
2009,06,05,14,34,21.20
2009,06,05,14,35,21.30
2009,06,05,14,36,21.30
2009,06,05,14,37,21.40
2009,06,05,14,38,21.60
2009,06,05,14,39,21.60
2009,06,05,14,40,21.60
2009,06,05,14,41,21.60
2009,06,05,14,42,21.60
2009,06,05,14,43,21.60
2009,06,05,14,44,21.50
2009,06,05,14,45,21.40
2009,06,05,14,46,21.30
2009,06,05,14,47,21.30
2009,06,05,14,48,21.30
2009,06,05,14,49,21.30
2009,06,05,14,50,21.30
2009,06,05,14,51,21.30
2009,06,05,14,52,21.20
2009,06,05,14,53,21.10
2009,06,05,14,54,21.20
2009,06,05,14,55,21.30
2009,06,05,14,56,21.30
2009,06,05,14,57,21.30
2009,06,05,14,58,21.30
2009,06,05,14,59,21.30
2009,06,05,15,00,21.30
2009,06,05,15,01,21.30
2009,06,05,15,02,21.30
2009,06,05,15,03,21.40
2009,06,05,15,04,21.40
2009,06,05,15,05,21.30
2009,06,05,15,06,21.10
2009,06,05,15,07,20.90
2009,06,05,15,08,20.80
2009,06,05,15,09,20.80
2009,06,05,15,10,20.70
2009,06,05,15,11,20.60
2009,06,05,15,12,20.60
2009,06,05,15,13,20.60
2009,06,05,15,14,20.70
2009,06,05,15,15,20.80
2009,06,05,15,16,20.90
2009,06,05,15,17,21.00
2009,06,05,15,18,21.10
2009,06,05,15,19,21.20
2009,06,05,15,20,21.30
2009,06,05,15,21,21.40
2009,06,05,15,22,21.60
2009,06,05,15,23,21.60
2009,06,05,15,24,21.80
2009,06,05,15,25,21.90
2009,06,05,15,26,21.80
2009,06,05,15,27,21.70
2009,06,05,15,28,21.60
2009,06,05,15,29,21.60
2009,06,05,15,30,21.60
2009,06,05,15,31,21.60
2009,06,05,15,32,21.60
2009,06,05,15,33,21.60
2009,06,05,15,34,21.60
2009,06,05,15,35,21.60
2009,06,05,15,36,21.70
2009,06,05,15,37,21.70
2009,06,05,15,38,21.70
2009,06,05,15,39,21.80
2009,06,05,15,40,21.70
2009,06,05,15,41,21.70
2009,06,05,15,42,21.70
2009,06,05,15,43,21.80
2009,06,05,15,44,21.80
2009,06,05,15,45,21.80
2009,06,05,15,46,21.80
2009,06,05,15,47,21.80
2009,06,05,15,48,21.90
2009,06,05,15,49,21.90
2009,06,05,15,50,21.80
2009,06,05,15,51,21.80
2009,06,05,15,52,21.80
2009,06,05,15,53,21.80
2009,06,05,15,54,21.70
2009,06,05,15,55,21.60
2009,06,05,15,56,21.60
2009,06,05,15,57,21.50
2009,06,05,15,58,21.40
2009,06,05,15,59,21.40
2009,06,05,16,00,21.40
2009,06,05,16,01,21.40
2009,06,05,16,02,21.60
2009,06,05,16,03,21.60
2009,06,05,16,04,21.60
2009,06,05,16,05,21.60
2009,06,05,16,06,21.60
2009,06,05,16,07,21.60
2009,06,05,16,08,21.70
2009,06,05,16,09,21.70
2009,06,05,16,10,21.70
2009,06,05,16,11,21.70
2009,06,05,16,12,21.80
2009,06,05,16,13,21.80
2009,06,05,16,14,21.90
2009,06,05,16,15,21.90
2009,06,05,16,16,21.90
2009,06,05,16,17,21.90
2009,06,05,16,18,22.00
2009,06,05,16,19,22.10
2009,06,05,16,20,22.10
2009,06,05,16,21,22.10
2009,06,05,16,22,22.10
2009,06,05,16,23,22.20
2009,06,05,16,24,22.20
2009,06,05,16,25,22.20
2009,06,05,16,26,22.20
2009,06,05,16,27,22.30
2009,06,05,16,28,22.40
2009,06,05,16,29,22.60
2009,06,05,16,30,22.60
2009,06,05,16,31,22.70
2009,06,05,16,32,22.70
2009,06,05,16,33,22.80
2009,06,05,16,34,22.80
2009,06,05,16,35,22.80
2009,06,05,16,36,22.70
2009,06,05,16,37,22.60
2009,06,05,16,38,22.60
2009,06,05,16,39,22.70
2009,06,05,16,40,22.70
2009,06,05,16,41,22.70
2009,06,05,16,42,22.70
2009,06,05,16,43,22.60
2009,06,05,16,44,22.60
2009,06,05,16,45,22.30
2009,06,05,16,46,22.10
2009,06,05,16,47,21.90
2009,06,05,16,48,21.70
2009,06,05,16,49,21.60
2009,06,05,16,50,21.40
2009,06,05,16,51,21.20
2009,06,05,16,52,21.10
2009,06,05,16,53,21.00
2009,06,05,16,54,21.00
2009,06,05,16,55,21.10
2009,06,05,16,56,21.10
2009,06,05,16,57,21.20
2009,06,05,16,58,21.30
2009,06,05,16,59,21.50
2009,06,05,17,00,21.60
2009,06,05,17,01,21.90
2009,06,05,17,02,22.10
2009,06,05,17,03,22.40
2009,06,05,17,04,22.50
2009,06,05,17,05,22.60
2009,06,05,17,06,22.70
2009,06,05,17,07,22.80
2009,06,05,17,08,22.90
2009,06,05,17,09,23.00
2009,06,05,17,10,23.10
2009,06,05,17,11,23.10
2009,06,05,17,12,23.10
2009,06,05,17,13,23.20
2009,06,05,17,14,23.30
2009,06,05,17,15,23.30
2009,06,05,17,16,23.30
2009,06,05,17,17,23.30
2009,06,05,17,18,23.30
2009,06,05,17,19,23.30